Regional Weather Roundup
Issued by NWS Sterling, VA

Home | Current Version | Previous Version | Text Only | Print | Product List | Glossary Off
Versions: 1 2 3 4 5 6 7 8 9 10 11 12 13 14 15 16 17 18 19 20 21 22 23 24 25 26 27

000
ASUS41 KLWX 110310
RWRLWX

REGIONAL WEATHER ROUNDUP
NATIONAL WEATHER SERVICE BALTIMORE MD/WASHINGTON DC
1000 PM EST SUN DEC 10 2017

Note: "FAIR" indicates few or no clouds below 12,000 feet
with no significant weather and/or obstructions to visibility.
 TC=TEMPERATURE CELSIUS

 * =Non NWS site. Station does not report precipitation (e.g. rain,
    snow, etc.), thunder, or fog.

DCZ001-MDZ009-015-VAZ040>042-051-053>054-110400-
WASHINGTON METRO

CITY           SKY/WX    TMP DP  RH WIND       PRES   REMARKS
WASHINGTON NAT CLOUDY    37  29  72 S8        30.06F
DULLES         CLOUDY    34  25  69 S5        30.04F
ANDREWS AFB    CLOUDY    35  27  74 S8        30.04S WCI  28
FT BELVOIR     CLOUDY    36  26  68 SW3       30.06S
QUANTICO       CLOUDY    37  28  70 SW8       30.08F
COLLEGE PARK*  CLOUDY    36  26  69 CALM      30.05S
LEESBURG*      CLOUDY    34  30  86 CALM      30.04F
MANASSAS*      CLOUDY    35  24  64 S3        30.06S
GAITHERSBURG*  CLOUDY    34  22  61 CALM      30.04S

$$

MDZ006>007-011-014-110400-
BALTIMORE METRO

CITY           SKY/WX    TMP DP  RH WIND       PRES   REMARKS
BWI AIRPORT    CLOUDY    33  25  72 SW3       30.04F
MD SCIENCE CTR   N/A     37  24  59 MISG      30.05F
MARTIN STATE   MOCLDY    37  28  70 CALM      30.07S
ANNAPOLIS      CLOUDY    36  30  79 S5        30.06S
FORT MEADE*    CLOUDY    30  28  93 CALM      30.08S

$$

MDZ012-015-019>023-110400-
MARYLAND EASTERN SHORE

CITY           SKY/WX    TMP DP  RH WIND       PRES   REMARKS
OCEAN CITY     CLOUDY    34  28  79 SW7       30.11S
SALISBURY      CLOUDY    31  27  85 S8        30.10S WCI  23
BAY BRIDGE AP* CLOUDY    37  28  70 SW10      30.06S
CAMBRIDGE*     MOCLDY    28  27  93 CALM      30.09S
EASTON*        CLEAR     36  28  75 SW3       30.11S

$$

MDZ017>025-110400-
SOUTHERN MARYLAND

CITY           SKY/WX    TMP DP  RH WIND       PRES   REMARKS
PATUXENT RIVER CLOUDY    36  28  73 SW8       30.09S
ST INIGOES     CLOUDY    38  28  67 SW18G25   30.09S WCI  28
LEONARDTOWN*   CLOUDY    36  30  80 SW7       30.10R

$$

MDZ003>005-110400-
NORTH CENTRAL MARYLAND

CITY           SKY/WX    TMP DP  RH WIND       PRES   REMARKS
FREDERICK*     CLOUDY    32  27  80 CALM      30.07S
HAGERSTOWN APT CLOUDY    35  18  49 SW3       30.01S
WESTMINSTER*   CLOUDY    34  25  69 S3        30.01S

$$

MDZ501>502-110400-
WESTERN MARYLAND

CITY           SKY/WX    TMP DP  RH WIND       PRES   REMARKS
OAKLAND*       CLOUDY    27  14  59 SW16G29   29.87S WCI  14
CUMBERLAND*    CLOUDY    34  19  55 CALM      30.04F

$$

VAZ025>031-110400-
SHENANDOAH VALLEY

CITY           SKY/WX    TMP DP  RH WIND       PRES   REMARKS
WINCHESTER*    CLOUDY    32  21  64 SW6       30.01F
FRONT ROYAL*   CLOUDY    34  21  60 CALM      30.01S
LURAY*         PTCLDY    34  23  64 SW5       30.01F
NEW MARKET*    CLOUDY    30  23  74 W3        30.01S
STAUNTON*      CLOUDY    33  20  59 S5        30.03S
WAYNESBORO*    CLOUDY    33  20  57 CALM      30.01S

$$

WVZ021-048>050-054>055-110400-
EASTERN WEST VIRGINIA PANHANDLE

CITY           SKY/WX    TMP DP  RH WIND       PRES   REMARKS
MARTINSBURG    CLOUDY    33  20  58 CALM      30.01F
PETERSBURG*    PTCLDY    28  19  67 NE3       30.00S

$$

VAZ036>039-050-110400-
CENTRAL FOOTHILLS

CITY           SKY/WX    TMP DP  RH WIND       PRES   REMARKS
CHARLOTTESVILL CLOUDY    36  23  59 S6        30.03F
CULPEPER*      CLOUDY    36  24  61 CALM      30.06S
ORANGE*        CLOUDY    34  23  64 CALM      30.05S
GORDONSVILLE*  CLOUDY    34  23  63 SW5       30.05S
WARRENTON*     CLOUDY    37  21  53 S6        30.04S

$$

VAZ055>057-110400-
NORTH AND CENTRAL PIEDMONT

CITY           SKY/WX    TMP DP  RH WIND       PRES   REMARKS
FREDERICKSBRG* CLOUDY    35  28  76 S5        30.07S
STAFFORD*      CLOUDY    34  27  75 SW3       30.10F

$$

NCZ024-NYZ072-PAZ021-071-VAZ022-071-110400-
OTHER REGIONAL OBSERVATIONS

CITY           SKY/WX    TMP DP  RH WIND       PRES   REMARKS
NEW YORK CITY  CLOUDY    36  21  54 SW10G16   30.03R WCI  28
PHILADELPHIA   CLOUDY    36  25  64 S9        30.05S WCI  29
PITTSBURGH     CLOUDY    33  18  53 SW8       29.97S WCI  26
ROANOKE        CLEAR     36  17  46 SW8       30.08S
RICHMOND       CLOUDY    34  28  79 S9        30.11S WCI  27
RALEIGH        CLEAR     31  25  78 SW5       30.15S

$$

ANZ530>537-110400-
MARINE OBSERVATIONS

STATION/POSITION TIME  TEMP    WIND        PRES
                       AIR SEA DIR/SP/G
                 (UTC) (F)     (DEG/KT/KT) (MB)
THOMAS PT LIGHT  0300   38 48  210/ 16/ 18   N/A
BALT KEY BRIDGE  0242   36     210/  7/  9 1017.6F
COVE POINT       0242   36     230/ 10/ 13 1019.2F
LEWISETTA        0242   35 44  230/ 10/ 12 1019.3S
SOLOMONS ISLAND  0242   38 49  220/ 10/ 12 1018.5S
PINEY POINT      0242          240/  8/ 12   N/A

$$





USA.gov is the U.S. government's official web portal to all federal, state and local government web resources and services.